[[{"header":{"parameterUnit":"m.s-1","parameterCategory":1,"la1":30.2991,"la2":30.254,"lo1":-89.0895,"lo2":-89.0444,"dy":0.0017,"dx":0.0017,"nx":28,"ny":28,"refTime":"2025-01-25T09:00:00:Z","depth":0,"parameterNumber":2,"parameterNumberName":"U-component_of_WINDS"},"data":[0,0,0,0,0,0,0,0,0,0,0,0,0,0,0,0,0,0,0,0,0,0,0,0,0,0,0,0,0,0,0,0,0,0,0,0,0,0,0,0,0,0,0,0,0,0,0,0,0,0,0,0,0,0,0,0,0,0,-2.431,-2.431,0,-2.4261,-2.4261,-2.426,-2.42,-2.4199,-2.4198,-2.4197,-2.4145,-2.4145,-2.4144,0,0,0,0,0,0,0,0,0,0,0,0,0,-2.4347,-2.4347,-2.431,-2.431,-2.4309,-2.4261,-2.426,-2.426,-2.42,-2.4199,-2.4198,-2.4197,-2.4145,-2.4145,-2.4144,0,0,0,0,0,0,0,0,0,0,0,0,0,-2.4318,-2.4347,-2.431,-2.4274,-2.427,-2.4261,-2.426,-2.426,-2.42,-2.4199,-2.4198,-2.4196,-2.4145,-2.4145,-2.4144,-2.4167,0,0,-2.4142,-2.4141,0,0,0,0,0,0,0,0,-2.432,-2.4317,-2.428,-2.4276,-2.4272,-2.4235,-2.4254,-2.4229,-2.4201,-2.4227,-2.4197,-2.4196,-2.4176,-2.4173,-2.4167,-2.4165,-2.4163,-2.4142,-2.4141,-2.4141,-2.4141,0,0,0,0,0,0,0,-2.4322,-2.4319,-2.4291,-2.4279,-2.4274,-2.4258,-2.4252,-2.4249,-2.421,-2.4224,-2.422,-2.4215,-2.4174,-2.4167,-2.4165,-2.4162,-2.4142,-2.4141,-2.414,-2.414,-2.4171,-2.4172,0,0,0,0,0,0,-2.433,-2.4321,-2.4292,-2.4289,-2.4293,-2.4258,-2.4252,-2.4248,-2.421,-2.4202,-2.4216,-2.4212,-2.4169,-2.4166,-2.4163,-2.4184,-2.4141,-2.414,-2.414,-2.4169,-2.4171,-2.4172,0,0,0,0,0,0,-2.4331,-2.4328,-2.4294,-2.4304,-2.4298,-2.4259,-2.4256,-2.4248,-2.4242,-2.4204,-2.4196,-2.4217,-2.4168,-2.4164,-2.4165,-2.4181,-2.414,-2.4139,-2.4168,-2.417,-2.4172,-2.4228,0,0,0,0,0,0,-2.4332,-2.4329,-2.4339,-2.4304,-2.4298,-2.43,-2.4257,-2.4248,-2.4241,-2.4235,-2.4203,-2.4196,-2.4167,-2.4167,-2.4165,-2.4179,-2.4138,-2.4166,-2.4169,-2.4171,-2.4225,-2.4232,-2.4238,0,0,0,0,0,-2.4334,-2.4357,-2.434,-2.4337,-2.431,-2.4301,-2.4297,-2.4263,-2.4243,-2.4251,-2.4225,-2.4197,-2.418,-2.4168,-2.4165,-2.4179,-2.4165,-2.4168,-2.4171,-2.4222,-2.423,-2.4238,0,0,0,0,0,0,-2.4395,-2.4352,-2.4332,-2.4346,-2.4327,-2.4291,-2.43,-2.4274,-2.4261,-2.4257,-2.4215,-2.4208,-2.4213,-2.4197,-2.4184,-2.4197,-2.4168,-2.417,-2.4208,-2.4215,-2.4222,-2.4225,-2.4138,0,0,0,0,0,-2.441,-2.4408,-2.437,-2.4385,-2.4377,-2.434,-2.4335,-2.4311,-2.429,-2.4282,-2.4256,-2.4236,-2.4225,-2.422,-2.4209,-2.4222,-2.4211,-2.423,-2.4237,-2.4242,-2.4244,-2.4245,-2.4252,-2.4182,-2.4182,-2.4182,0,0,-2.4442,-2.4418,-2.4419,-2.4397,-2.438,-2.4375,-2.4334,-2.4333,-2.4329,-2.4281,-2.428,-2.4261,-2.4235,-2.4241,-2.4243,-2.4227,-2.4261,-2.4246,-2.4251,-2.4249,-2.4249,-2.4255,-2.4261,-2.4184,-2.4183,-2.4183,0,0,-2.4495,-2.4479,-2.4487,-2.447,-2.4444,-2.4419,-2.4421,-2.4388,-2.4373,-2.4371,-2.4334,-2.4327,-2.4312,-2.4293,-2.4282,-2.4325,-2.4296,-2.4322,-2.4356,-2.4357,-2.4363,-2.4367,-2.4379,-2.4384,-2.4324,-2.4325,-2.4325,0,-2.4537,-2.4531,-2.4495,-2.4495,-2.4484,-2.4441,-2.4447,-2.4432,-2.4404,-2.4397,-2.438,-2.4356,-2.4336,-2.4335,-2.4345,-2.4338,-2.4336,-2.4325,-2.4365,-2.4369,-2.4373,-2.4383,-2.4388,-2.4328,-2.4327,-2.4327,-2.4327,0,-2.4581,-2.4577,-2.4587,-2.456,-2.4551,-2.4554,-2.4516,-2.4511,-2.4487,-2.4462,-2.4459,-2.4432,-2.4413,-2.4411,-2.4388,-2.4405,-2.4396,-2.4373,-2.4343,-2.4383,-2.4392,-2.4396,-2.4332,-2.4331,-2.433,-2.4329,0,0,-2.4674,-2.4624,-2.4628,-2.4613,-2.458,-2.4575,-2.4574,-2.4555,-2.4549,-2.4531,-2.4527,-2.4512,-2.4489,-2.4476,-2.445,-2.4452,-2.4482,-2.4427,-2.4426,-2.4436,-2.4494,-2.4511,-2.4516,-2.4463,-2.4464,-2.4464,-2.4495,0,-2.472,-2.4717,-2.4683,-2.4689,-2.4682,-2.4639,-2.4637,-2.4615,-2.4592,-2.4581,-2.4555,-2.4543,-2.4516,-2.4507,-2.4507,-2.4478,-2.4492,-2.4476,-2.4456,-2.4456,-2.4462,-2.4521,-2.454,-2.4571,-2.4499,-2.45,-2.45,0,-2.4773,-2.4756,-2.4761,-2.4723,-2.4719,-2.4719,-2.4696,-2.4688,-2.466,-2.4642,-2.4626,-2.4595,-2.4589,-2.4562,-2.455,-2.454,-2.4529,-2.4514,-2.4514,-2.4509,-2.448,-2.4516,-2.458,-2.4584,-2.4506,-2.4506,-2.4505,0,-2.4836,-2.4814,-2.4813,-2.4802,-2.4759,-2.4759,-2.4741,-2.4712,-2.4701,-2.4681,-2.4672,-2.4652,-2.464,-2.4623,-2.4586,-2.457,-2.4578,-2.4548,-2.456,-2.4561,-2.4563,-2.4563,-2.4624,-2.456,-2.456,-2.456,-2.456,0,-2.4889,-2.4893,-2.484,-2.484,-2.4841,-2.4801,-2.4803,-2.4781,-2.4754,-2.4746,-2.4708,-2.4701,-2.4654,-2.4641,-2.4612,-2.4604,-2.46,-2.4584,-2.4575,-2.4586,-2.4588,-2.4577,-2.4573,-2.4561,-2.4561,-2.4561,-2.4561,0,-2.496,-2.4925,-2.492,-2.4879,-2.4868,-2.4871,-2.4834,-2.483,-2.4803,-2.4793,-2.4789,-2.4746,-2.4728,-2.469,-2.4662,-2.4642,-2.464,-2.4628,-2.465,-2.4644,-2.4657,-2.4656,-2.4712,-2.4716,-2.4653,-2.4653,-2.4654,0,-2.4995,-2.4997,-2.4955,-2.4946,-2.493,-2.4918,-2.4905,-2.4864,-2.4853,-2.4819,-2.4818,-2.4797,-2.4778,-2.4751,-2.4716,-2.4693,-2.4678,-2.4699,-2.4674,-2.4683,-2.4674,-2.4673,-2.4672,-2.4704,-2.4705,-2.4706,-2.4706,0,-2.506,-2.5042,-2.5026,-2.5004,-2.499,-2.4971,-2.4949,-2.4944,-2.4897,-2.4886,-2.4866,-2.4851,-2.4821,-2.4799,-2.477,-2.4749,-2.4719,-2.4714,-2.4715,-2.4725,-2.4736,-2.4727,-2.4662,-2.4713,-2.4712,-2.4712,-2.4712,-2.4711,-2.5112,-2.5109,-2.5079,-2.5061,-2.504,-2.502,-2.5013,-2.4984,-2.4968,-2.494,-2.4916,-2.4898,-2.4866,-2.4824,-2.4804,-2.4788,-2.4773,-2.4776,-2.4776,-2.4776,-2.4779,-2.4741,-2.4783,-2.4782,-2.4782,-2.4782,-2.4782,0,-2.5172,-2.5149,-2.5134,-2.5103,-2.5089,-2.5062,-2.5035,-2.5024,-2.5009,-2.4982,-2.4963,-2.4939,-2.4916,-2.4879,-2.4852,-2.4846,-2.4831,-2.484,-2.4839,-2.4834,-2.4795,-2.4796,-2.4853,-2.4853,-2.4853,-2.4853,-2.4853,-2.4853,-2.5201,-2.5195,-2.5173,-2.5154,-2.513,-2.5113,-2.5099,-2.5079,-2.5056,-2.5031,-2.5012,-2.4988,-2.4955,-2.4925,-2.4902,-2.4891,-2.4882,-2.4895,-2.488,-2.4844,-2.4837,-2.4831,-2.4831,-2.4894,-2.4894,-2.4919,-2.492,-2.492]},{"header":{"parameterUnit":"m.s-1","parameterCategory":1,"la1":30.2991,"la2":30.254,"lo1":-89.0895,"lo2":-89.0444,"dy":0.0017,"dx":0.0017,"nx":28,"ny":28,"refTime":"2025-01-25T09:00:00:Z","depth":0,"parameterNumber":3,"parameterNumberName":"V-component_of_WINDS"},"data":[0,0,0,0,0,0,0,0,0,0,0,0,0,0,0,0,0,0,0,0,0,0,0,0,0,0,0,0,0,0,0,0,0,0,0,0,0,0,0,0,0,0,0,0,0,0,0,0,0,0,0,0,0,0,0,0,0,0,0.2915,0.2917,0,0.315,0.3152,0.3155,0.3189,0.3187,0.3185,0.3183,0.3432,0.344,0.3449,0,0,0,0,0,0,0,0,0,0,0,0,0,0.2506,0.2514,0.2915,0.2918,0.292,0.3149,0.3153,0.3156,0.3189,0.3187,0.3184,0.3182,0.3429,0.3439,0.345,0,0,0,0,0,0,0,0,0,0,0,0,0,0.2707,0.2516,0.2914,0.2965,0.2971,0.3149,0.3153,0.3157,0.319,0.3187,0.3183,0.318,0.3426,0.3438,0.3451,0.3597,0,0,0.3491,0.3496,0,0,0,0,0,0,0,0,0.2695,0.2722,0.2954,0.2961,0.2969,0.3137,0.31,0.3304,0.3191,0.3107,0.3183,0.3179,0.3337,0.3357,0.3408,0.3608,0.3619,0.3492,0.35,0.3505,0.3509,0,0,0,0,0,0,0,0.2682,0.2712,0.3008,0.2958,0.2967,0.2979,0.3004,0.3139,0.3238,0.3114,0.3117,0.3144,0.334,0.3396,0.3415,0.3623,0.3491,0.3503,0.3511,0.3516,0.3962,0.3965,0,0,0,0,0,0,0.2657,0.27,0.3,0.3015,0.2821,0.2989,0.3017,0.3086,0.3236,0.3256,0.3147,0.3145,0.3375,0.3399,0.3423,0.3609,0.3505,0.3517,0.3525,0.3958,0.3962,0.3967,0,0,0,0,0,0,0.2648,0.2683,0.2991,0.2859,0.2899,0.3,0.3077,0.3093,0.3148,0.3261,0.328,0.3185,0.3374,0.3405,0.3554,0.3618,0.3523,0.3535,0.3953,0.3959,0.3965,0.3978,0,0,0,0,0,0,0.2636,0.268,0.2733,0.2859,0.2905,0.3115,0.3081,0.31,0.3169,0.3169,0.3301,0.332,0.3373,0.3535,0.3567,0.3634,0.3545,0.3948,0.3956,0.3963,0.3973,0.3984,0.3994,0,0,0,0,0,0.2622,0.2728,0.2736,0.2772,0.2974,0.3118,0.3145,0.3202,0.3174,0.3232,0.3305,0.3316,0.3605,0.355,0.3587,0.3659,0.3944,0.3953,0.3962,0.3968,0.3982,0.3994,0,0,0,0,0,0,0.2609,0.2746,0.2756,0.2905,0.3,0.3123,0.3197,0.3213,0.332,0.3315,0.3384,0.3414,0.3561,0.3624,0.356,0.3811,0.3773,0.379,0.3765,0.3779,0.3789,0.3773,0.3556,0,0,0,0,0,0.2623,0.2726,0.284,0.2962,0.3009,0.3094,0.3159,0.3195,0.3297,0.3337,0.3421,0.3522,0.3637,0.371,0.3821,0.3981,0.4014,0.4049,0.406,0.4068,0.4083,0.4179,0.4198,0.3997,0.3997,0.3996,0,0,0.2655,0.2742,0.2803,0.2962,0.3039,0.3148,0.3128,0.3242,0.3326,0.3356,0.3503,0.3568,0.3686,0.3842,0.3916,0.39,0.4146,0.4079,0.4085,0.4096,0.419,0.4209,0.4226,0.4003,0.4002,0.4001,0,0,0.2769,0.2842,0.2955,0.3033,0.3149,0.3206,0.3233,0.3355,0.34,0.3547,0.3574,0.3675,0.3869,0.3954,0.4022,0.4172,0.4189,0.4206,0.4263,0.4356,0.4372,0.4386,0.4446,0.4466,0.422,0.422,0.422,0,0.2794,0.2956,0.3011,0.3126,0.3198,0.3228,0.3346,0.3419,0.3568,0.3619,0.3597,0.3845,0.3926,0.4106,0.4143,0.4195,0.4233,0.4193,0.4364,0.4379,0.4394,0.4452,0.4473,0.4222,0.4222,0.4222,0.4221,0,0.2985,0.3097,0.3174,0.3316,0.3396,0.3511,0.3588,0.3663,0.3693,0.3753,0.3907,0.4005,0.4139,0.4184,0.4214,0.4371,0.4358,0.4349,0.4313,0.4414,0.447,0.4492,0.4224,0.4224,0.4223,0.4223,0,0,0.3098,0.3269,0.3298,0.3365,0.3497,0.3587,0.3707,0.3836,0.3902,0.4004,0.411,0.4274,0.4269,0.4347,0.4387,0.4467,0.4588,0.4451,0.4455,0.4478,0.4775,0.4784,0.4808,0.4598,0.4603,0.4606,0.4767,0,0.3232,0.3443,0.3497,0.3679,0.3787,0.3819,0.3924,0.4019,0.408,0.4184,0.4251,0.4369,0.435,0.4398,0.4479,0.4556,0.465,0.4544,0.4704,0.4709,0.4678,0.4836,0.4845,0.4992,0.4788,0.4792,0.4794,0,0.3416,0.3521,0.3713,0.3837,0.3884,0.3977,0.4103,0.4199,0.4311,0.435,0.4438,0.4471,0.4602,0.4556,0.4741,0.4669,0.4737,0.4785,0.4793,0.4814,0.4761,0.4867,0.5039,0.5063,0.4828,0.4825,0.4823,0,0.3487,0.3676,0.3817,0.3873,0.4018,0.4084,0.4149,0.4256,0.4332,0.4443,0.4494,0.4619,0.4689,0.4787,0.4856,0.4814,0.5038,0.4996,0.5079,0.5078,0.5128,0.5125,0.5319,0.5163,0.5162,0.5162,0.5162,0,0.3634,0.3751,0.3852,0.3939,0.4074,0.4137,0.427,0.4336,0.4432,0.4536,0.4571,0.4669,0.475,0.4861,0.4915,0.5065,0.5094,0.5134,0.5148,0.5134,0.513,0.5183,0.5177,0.5168,0.5167,0.5165,0.5164,0,0.3737,0.3808,0.3965,0.409,0.4125,0.4219,0.4329,0.4418,0.4479,0.4611,0.4646,0.4745,0.4877,0.4954,0.5121,0.5158,0.5326,0.5332,0.5288,0.5295,0.5376,0.537,0.5617,0.5655,0.5467,0.5469,0.547,0,0.3828,0.392,0.4055,0.4126,0.4192,0.4305,0.4384,0.445,0.4531,0.4667,0.4741,0.4875,0.4986,0.5197,0.5286,0.5416,0.543,0.5507,0.545,0.5435,0.5439,0.5435,0.5447,0.5519,0.552,0.5522,0.5523,0,0.3985,0.4016,0.4125,0.4249,0.4341,0.4442,0.4542,0.46,0.4684,0.4774,0.4909,0.4995,0.5166,0.5302,0.5439,0.5511,0.5534,0.5539,0.5567,0.5556,0.5529,0.5551,0.5321,0.5535,0.5533,0.5533,0.5532,0.5531,0.409,0.4175,0.4284,0.4407,0.4489,0.4583,0.4674,0.4748,0.486,0.5004,0.5037,0.5181,0.5295,0.5482,0.5557,0.5674,0.5661,0.5699,0.571,0.572,0.5726,0.5506,0.5699,0.5698,0.5698,0.5698,0.5698,0,0.4253,0.4326,0.4437,0.4577,0.4675,0.4684,0.4797,0.488,0.5005,0.5108,0.5217,0.5376,0.5508,0.5608,0.5744,0.5819,0.5834,0.5854,0.5852,0.5869,0.5726,0.5691,0.584,0.584,0.584,0.584,0.584,0.584,0.435,0.4497,0.4542,0.4732,0.4805,0.4944,0.5009,0.5098,0.5181,0.5356,0.5465,0.5528,0.5633,0.5778,0.5902,0.5928,0.598,0.5999,0.6028,0.5893,0.5878,0.5864,0.5832,0.6008,0.6008,0.6163,0.6164,0.6165]}]]